Weather in Yermaki

Russia / Tyumen Oblast     57°15′18″N   70°56′14″E
temp.,
°C
wind,
m/s
gust,
m/s
humid.,
%
clouds,
%
prec.,
mm/h
press.,
hPa
HPBL,
m
16 june, wed
wed1623:00+16ene2599100 3.0 1011197
02:00+16wsw12986 0.1 101124
05:00+16w28989 0.1 1012237
08:00+21wnw47756 0.0 1012510
11:00+26wnw594329 0.0 10122525
14:00+28wnw6936100 0.0 10102828
17:00+24wnw485399 0.0 10101085
20:00+21n267043 0.0 1010149
17 june, thu
thu1723:00+15wnw1167100 0.0 101211
02:00+14ssw11705 0.0 101111
05:00+15ssw22736 0.0 101054
08:00+23ssw35565 0.0 1009401
11:00+28sw464712 0.0 10071310
14:00+30wsw683612 0.0 10052490
17:00+24w8154573 0.0 10041267
20:00+20ssw227184 0.0 100422
18 june, fri
fri1823:00+17sw009596 1.2 100312
02:00+16nnw2398100 1.3 100177
05:00+16wsw2499100 2.2 1001126
08:00+12n71196100 1.7 1002516
11:00+9n61297100 8.8 1005590
14:00+7n81698100 5.7 1006680
17:00+7nne61696100 13.4 1007888
20:00+8nne41489100 1.4 10071041
19 june, sat
sat1923:00+9n51270100 1.4 10081029
02:00+10n61354100 0.0 10081285
05:00+10n6155791 0.0 10081413
08:00+13n61449100 0.0 10091753
11:00+15n71241100 0.0 10082093
14:00+16n61142100 0.0 10092213
17:00+17n6124183 0.0 10082231
20:00+14n511475 0.0 10081621
20 june, sun
sun2023:00+11n412556 0.0 1009613
02:00+9n414635 0.0 1010681
05:00+8n4146827 0.0 1010589
08:00+14n6124642 0.0 1010999
11:00+19n610365 0.0 10091638
14:00+22n58324 0.0 10082129
17:00+22n48371 0.0 10082082
20:00+17n226993 0.0 100913